Wind_Speed
7 7 7 7 7 6 7 7 7 7 7 6 5 6 5 5 6 6 7 7 6 6 6 6 6 6 7 7 7 7 7 7 6 6 6 6 5 5 7 6 6 5 4 4
10 10 8 8 9 10 10 10 9 8 8 6 5 7 6 6 5 6 7 6 6 5 5 6 6 6 6 6 6 7 7 7 7 6 5 6 6 6 6 6 7 6 6 6
12 10 9 10 11 11 11 11 11 9 7 7 7 8 9 8 7 7 7 7 6 5 5 5 6 6 6 6 6 6 6 7 7 7 6 6 5 6 6 6 6 6 6 6
14 12 13 13 11 11 12 12 12 10 9 9 7 10 11 9 9 9 9 8 7 6 5 5 6 6 6 6 6 6 6 7 7 8 8 7 6 6 6 6 7 7 6 6
15 14 15 15 14 14 15 13 12 10 10 11 11 12 12 11 11 10 10 10 8 8 7 6 6 6 6 6 6 7 7 7 7 7 7 7 6 6 7 7 7 7 7 7
17 16 16 16 15 16 15 13 12 11 13 13 12 13 14 13 12 12 12 11 10 9 8 8 8 7 6 7 7 7 8 8 8 8 7 7 7 7 8 7 7 8 8 8
19 18 18 17 16 16 15 14 13 13 13 12 11 13 15 15 13 12 12 10 11 10 8 9 9 9 8 8 8 8 8 8 9 9 9 8 8 8 8 8 8 8 8 8
20 20 19 18 18 17 17 17 17 15 13 13 14 14 13 15 15 14 13 12 11 11 11 11 11 11 11 10 9 9 9 9 9 9 9 10 10 9 8 9 9 9 9 9
20 20 19 20 19 18 18 18 16 17 16 16 15 15 15 15 16 16 15 14 13 13 13 12 13 12 12 11 11 11 11 10 10 10 10 10 10 10 10 10 11 10 10 11
22 20 19 20 20 20 19 19 18 18 18 18 17 15 16 16 17 17 16 15 15 14 14 13 13 13 13 13 12 12 11 12 12 11 11 11 11 11 11 11 11 11 11 12
23 21 21 22 23 21 20 19 19 19 19 18 17 15 16 17 17 18 18 17 16 15 14 14 14 14 13 13 13 13 12 13 13 12 12 12 12 12 12 12 12 12 13 13
24 24 23 23 22 22 21 20 20 21 22 21 18 17 15 16 16 18 18 17 16 16 16 16 16 15 14 14 13 13 13 13 13 13 13 13 13 13 13 13 13 14 14 14
25 25 23 22 22 23 23 23 23 22 22 22 20 19 17 17 18 20 20 19 18 17 17 16 16 17 16 15 15 15 15 14 14 14 14 14 14 15 14 14 15 15 16 16
27 27 25 22 22 23 24 24 23 23 22 22 21 20 20 19 20 21 22 21 20 19 18 17 17 18 17 17 16 16 16 16 16 15 15 15 15 15 15 16 17 17 17 16
28 28 26 24 22 23 24 24 24 25 25 23 22 21 22 22 23 23 23 22 22 21 20 19 19 19 19 19 18 18 17 17 17 17 17 16 16 16 17 17 18 18 17 17
29 29 27 26 24 24 24 25 24 25 25 25 24 23 24 25 25 24 25 24 24 23 22 21 21 20 20 20 19 19 19 18 19 19 18 18 18 18 18 19 19 19 19 19
28 29 29 26 25 26 27 26 25 25 25 27 27 26 27 27 27 27 27 26 25 24 24 23 22 22 21 21 21 20 20 20 19 19 19 19 19 18 19 19 19 19 20 20
29 29 28 26 25 27 25 25 25 26 26 27 28 28 29 30 29 29 29 28 27 26 25 25 24 23 23 23 23 22 22 22 21 20 20 20 20 20 21 21 20 21 21 21
28 28 27 27 27 27 24 25 25 25 26 27 28 30 30 29 29 30 30 29 28 27 26 25 25 25 25 24 24 24 23 23 23 22 22 21 21 22 22 21 21 22 22 22
27 29 28 27 27 26 26 25 26 25 26 27 27 28 29 29 29 29 30 28 28 27 27 26 25 25 25 25 25 25 24 24 23 23 23 23 22 22 22 22 23 23 23 23
26 28 28 28 28 27 26 25 25 25 26 27 27 27 27 27 28 28 28 27 28 27 27 27 26 25 25 25 26 26 26 25 25 24 24 24 24 24 24 24 24 25 24 24
24 27 27 26 28 29 27 26 26 26 27 27 26 26 26 27 28 28 27 27 27 27 27 27 27 26 26 26 26 26 26 26 26 26 26 26 26 26 26 26 26 26 26 26
25 26 27 28 28 27 28 28 28 28 27 28 27 26 26 26 28 29 28 27 27 27 27 27 27 27 27 26 26 26 26 27 27 27 27 27 26 27 27 27 27 27 26 26
25 26 27 28 28 29 28 28 28 28 28 27 27 26 26 27 27 27 26 27 27 28 27 27 28 28 27 28 27 27 27 27 27 26 27 27 27 27 27 27 27 27 27 27
25 27 27 28 28 29 29 29 28 28 28 26 26 26 27 27 26 26 25 26 27 27 27 27 28 28 28 28 28 27 27 27 27 27 27 26 26 26 26 26 27 27 27 28
23 24 26 27 27 29 29 28 28 28 28 27 26 26 26 25 25 25 25 25 26 26 27 28 28 28 28 28 28 28 27 26 26 26 26 26 26 27 28 29 28 28 28 29
Wind_Direction
228 228 228 223 232 225 231 236 245 257 262 271 288 299 303 311 327 340 346 350 1 8 12 13 18 25 30 32 31 29 31 31 27 27 27 23 21 18 17 20 14 8 1 347
230 231 236 236 233 231 228 230 237 248 260 272 275 281 287 302 316 319 323 332 341 351 359 2 6 12 17 19 21 20 21 21 15 14 14 10 12 13 12 6 2 1 359 352
234 234 240 238 235 234 236 233 236 241 256 271 278 282 286 290 302 308 314 318 325 329 344 352 354 1 3 4 6 6 9 10 8 5 0 358 357 360 3 4 0 356 352 349
231 228 233 239 240 241 244 240 240 237 252 260 262 275 278 289 297 298 307 311 311 310 320 331 339 345 348 353 357 356 354 355 354 355 354 352 351 351 352 355 355 351 347 340
230 230 234 240 242 241 242 240 238 235 240 244 246 259 270 280 283 290 298 301 297 301 304 309 318 326 330 332 338 342 344 344 345 347 350 346 345 346 344 344 345 344 341 338
233 238 240 240 242 243 241 240 241 238 243 248 243 251 264 265 273 281 285 293 295 295 298 299 302 307 314 318 322 327 332 336 339 340 341 338 332 331 331 333 336 338 336 335
233 234 240 241 238 238 234 237 237 241 246 251 252 256 263 262 269 275 278 284 288 291 292 295 297 302 310 309 311 318 323 325 328 333 335 334 329 325 322 325 330 333 334 333
237 238 238 240 239 233 234 234 234 236 242 247 247 249 257 265 267 271 272 271 274 277 282 287 290 292 297 302 303 306 311 315 316 322 326 328 328 330 325 325 326 327 329 330
235 241 241 240 241 234 234 236 237 238 243 247 246 246 255 261 269 273 274 270 266 270 279 284 285 287 289 294 299 303 303 306 307 309 314 319 321 322 323 321 320 319 320 321
231 235 235 238 240 237 236 236 233 234 239 245 249 250 255 258 268 272 273 269 267 271 278 282 281 283 286 287 289 296 301 303 303 302 304 310 313 313 313 315 319 317 315 315
230 229 232 234 234 235 237 234 234 237 239 242 251 253 252 258 266 272 276 273 270 273 274 276 279 280 283 286 289 290 294 299 298 296 296 300 304 304 307 309 310 310 311 313
229 226 228 234 241 238 238 236 235 235 239 236 244 251 246 256 265 271 273 271 272 275 277 274 276 279 280 283 287 290 294 297 296 294 292 293 295 296 299 300 302 305 306 307
230 225 227 231 234 237 236 236 237 238 238 237 241 253 254 254 260 265 268 270 272 276 276 275 274 276 278 280 284 287 289 291 291 292 290 289 290 291 294 294 297 300 302 304
230 229 226 228 229 233 235 236 238 238 237 240 240 245 249 252 259 263 267 268 268 273 276 275 273 275 277 278 281 286 287 288 288 288 287 288 288 289 291 292 294 295 297 298
230 230 228 225 226 233 237 237 238 241 240 242 244 248 250 252 257 261 264 265 267 270 274 275 274 274 275 276 278 283 285 287 287 285 284 286 285 284 287 290 293 294 294 296
231 228 228 230 230 229 230 235 237 241 244 246 245 245 250 252 255 261 263 264 267 269 271 273 273 273 273 273 276 280 283 285 285 284 283 283 284 283 285 288 290 291 292 293
230 230 228 230 234 235 231 230 235 241 245 247 248 247 249 252 255 260 261 263 264 266 268 271 272 272 272 272 275 278 280 282 283 283 281 280 283 284 284 285 287 289 290 291
227 230 230 228 235 239 233 234 236 239 242 243 245 247 249 253 256 258 260 261 263 264 266 268 270 271 271 272 274 277 278 280 280 281 281 280 280 283 284 285 287 289 290 291
229 231 231 231 235 243 243 238 237 241 244 246 248 250 251 255 257 257 258 261 263 265 266 267 269 270 270 271 273 275 277 279 278 278 278 279 279 280 282 284 286 286 288 290
230 232 233 233 236 241 245 243 243 244 248 249 251 252 253 254 255 257 259 260 262 264 265 265 266 269 269 270 271 273 274 276 276 277 277 277 278 279 280 282 283 284 286 287
232 233 233 232 235 240 243 245 243 242 247 250 251 251 252 252 253 258 260 261 262 263 263 263 265 266 268 269 270 270 271 273 275 276 275 274 275 276 277 280 282 283 284 285
234 233 234 235 236 239 239 242 241 244 249 250 251 252 254 254 255 258 260 262 263 263 263 263 263 264 266 268 269 270 270 272 274 275 274 273 274 274 276 278 281 282 283 284
232 234 235 237 237 239 243 244 244 245 250 251 253 254 256 256 258 259 259 260 262 263 263 262 262 263 265 267 268 270 270 272 273 275 275 274 275 275 276 278 281 282 284 285
235 233 233 237 236 239 245 246 244 246 250 253 253 255 256 257 260 262 260 260 260 260 262 262 262 261 262 264 267 269 271 273 272 273 276 276 275 276 276 277 278 280 283 286
237 237 235 237 238 241 244 247 249 250 250 251 254 256 257 257 262 263 260 261 260 262 261 264 264 262 262 263 265 269 272 273 273 273 274 274 276 279 280 279 278 279 282 284
235 237 237 238 239 241 244 246 248 250 252 254 256 257 260 261 263 264 263 263 263 263 263 264 265 265 263 263 265 267 270 273 274 274 275 277 278 280 280 280 281 281 283 284
Height
5899 5901 5903 5905 5906 5908 5910 5911 5911 5911 5911 5910 5910 5909 5908 5907 5906 5906 5905 5904 5903 5902 5901 5900 5900 5899 5898 5898 5897 5896 5895 5895 5894 5894 5893 5893 5892 5892 5891 5891 5890 5890 5889 5889
5899 5900 5902 5903 5905 5907 5908 5909 5910 5910 5910 5910 5909 5909 5909 5907 5907 5906 5905 5904 5903 5903 5902 5901 5900 5900 5900 5899 5898 5898 5897 5896 5896 5895 5894 5893 5893 5892 5892 5891 5891 5890 5889 5889
5897 5900 5901 5902 5904 5905 5906 5908 5909 5909 5909 5909 5909 5909 5908 5908 5907 5906 5905 5905 5904 5903 5903 5902 5901 5901 5900 5900 5899 5899 5898 5897 5896 5896 5895 5894 5893 5893 5892 5891 5891 5890 5889 5888
5894 5897 5899 5900 5902 5903 5904 5906 5907 5907 5907 5908 5909 5908 5907 5906 5906 5906 5905 5904 5904 5903 5902 5902 5902 5901 5901 5901 5900 5899 5899 5898 5897 5896 5895 5894 5894 5893 5892 5891 5891 5890 5889 5888
5891 5894 5896 5897 5899 5901 5902 5903 5904 5905 5906 5906 5907 5907 5906 5906 5906 5905 5904 5904 5903 5902 5902 5902 5901 5901 5901 5901 5900 5900 5899 5898 5897 5896 5895 5894 5894 5893 5892 5891 5890 5889 5888 5887
5889 5891 5893 5895 5897 5897 5899 5901 5901 5902 5903 5904 5905 5905 5904 5903 5904 5904 5903 5903 5902 5902 5901 5901 5901 5900 5900 5900 5900 5899 5899 5898 5897 5896 5895 5894 5894 5893 5892 5891 5890 5889 5888 5887
5885 5887 5889 5891 5893 5894 5896 5898 5899 5900 5901 5901 5903 5903 5903 5901 5902 5902 5902 5902 5900 5900 5900 5900 5900 5899 5899 5899 5899 5899 5898 5898 5897 5896 5895 5894 5893 5892 5891 5890 5889 5888 5887 5886
5881 5884 5885 5887 5888 5890 5892 5894 5896 5898 5899 5900 5901 5900 5900 5899 5900 5900 5900 5900 5899 5899 5899 5899 5898 5898 5898 5898 5898 5897 5897 5897 5896 5895 5894 5893 5892 5891 5890 5889 5888 5887 5886 5885
5877 5880 5882 5883 5885 5887 5888 5890 5893 5895 5895 5896 5896 5896 5896 5896 5897 5898 5897 5897 5897 5897 5897 5897 5897 5896 5896 5896 5896 5896 5895 5895 5894 5893 5893 5892 5891 5890 5889 5888 5887 5886 5885 5884
5872 5874 5878 5879 5881 5883 5885 5887 5889 5890 5891 5892 5893 5893 5893 5892 5894 5895 5895 5894 5894 5894 5894 5894 5894 5894 5894 5894 5893 5893 5893 5893 5892 5891 5891 5890 5889 5888 5887 5886 5885 5884 5883 5882
5865 5869 5873 5874 5875 5878 5880 5882 5884 5886 5887 5889 5889 5892 5890 5890 5890 5891 5891 5891 5891 5891 5892 5891 5891 5891 5891 5891 5891 5891 5890 5890 5889 5889 5888 5888 5887 5886 5885 5884 5883 5882 5881 5880
5858 5862 5866 5869 5871 5873 5875 5877 5880 5882 5882 5884 5885 5888 5885 5885 5886 5886 5887 5887 5887 5888 5888 5888 5888 5888 5888 5888 5888 5888 5888 5887 5887 5886 5885 5885 5884 5883 5883 5882 5881 5880 5879 5877
5852 5855 5859 5863 5867 5868 5869 5871 5874 5876 5878 5879 5881 5884 5882 5881 5882 5882 5882 5883 5884 5884 5884 5885 5885 5885 5885 5885 5885 5885 5884 5884 5884 5883 5882 5882 5881 5881 5880 5879 5878 5877 5876 5874
5845 5848 5852 5857 5860 5861 5863 5866 5868 5870 5872 5874 5877 5878 5878 5877 5876 5877 5878 5879 5880 5880 5880 5881 5881 5881 5881 5881 5881 5881 5880 5880 5880 5880 5879 5879 5878 5877 5876 5876 5875 5874 5872 5871
5839 5843 5845 5849 5852 5855 5857 5860 5862 5864 5867 5869 5871 5872 5872 5872 5871 5871 5873 5874 5874 5875 5876 5876 5877 5877 5877 5877 5877 5877 5877 5876 5876 5875 5875 5875 5874 5873 5872 5872 5871 5869 5868 5867
5832 5836 5839 5842 5845 5848 5851 5854 5856 5859 5861 5864 5865 5866 5866 5865 5866 5866 5867 5869 5869 5870 5871 5871 5872 5872 5872 5873 5873 5872 5872 5872 5871 5871 5871 5870 5870 5869 5868 5867 5866 5865 5864 5863
5825 5829 5833 5836 5839 5841 5844 5847 5851 5853 5855 5857 5858 5860 5859 5859 5860 5861 5861 5863 5863 5864 5865 5865 5866 5867 5867 5867 5867 5867 5867 5867 5867 5866 5866 5865 5865 5864 5863 5862 5861 5860 5859 5858
5819 5822 5826 5830 5833 5834 5840 5842 5844 5847 5848 5850 5851 5852 5852 5853 5854 5854 5855 5856 5857 5858 5859 5860 5860 5861 5861 5862 5862 5862 5862 5862 5862 5861 5861 5860 5860 5859 5858 5857 5856 5855 5854 5853
5813 5816 5819 5823 5826 5828 5832 5835 5836 5839 5841 5842 5844 5844 5845 5846 5847 5847 5848 5849 5850 5851 5852 5853 5854 5854 5855 5855 5856 5856 5856 5856 5856 5856 5855 5854 5854 5853 5853 5852 5851 5850 5849 5848
5807 5809 5813 5816 5819 5822 5826 5828 5830 5833 5833 5835 5836 5837 5838 5838 5840 5840 5841 5842 5843 5844 5845 5846 5847 5848 5848 5849 5849 5850 5850 5850 5850 5850 5849 5848 5848 5847 5847 5846 5845 5844 5843 5842
5800 5802 5805 5809 5813 5815 5819 5820 5823 5826 5826 5827 5828 5829 5830 5831 5833 5833 5833 5835 5836 5838 5839 5839 5840 5841 5842 5842 5843 5843 5843 5843 5843 5843 5842 5842 5841 5841 5840 5840 5839 5838 5837 5835
5793 5797 5799 5803 5806 5810 5812 5813 5815 5817 5818 5819 5820 5822 5823 5824 5825 5826 5827 5828 5829 5830 5831 5832 5833 5834 5835 5835 5835 5836 5836 5836 5836 5836 5835 5835 5834 5834 5833 5833 5832 5831 5830 5829
5787 5791 5794 5797 5800 5802 5803 5804 5806 5809 5811 5812 5814 5816 5817 5818 5818 5819 5821 5822 5822 5823 5824 5825 5826 5827 5827 5828 5828 5828 5829 5829 5829 5828 5828 5827 5827 5826 5826 5825 5824 5823 5822 5821
5781 5784 5786 5788 5792 5794 5795 5797 5799 5802 5804 5805 5807 5808 5810 5811 5811 5812 5813 5814 5815 5816 5817 5817 5818 5819 5820 5820 5821 5821 5821 5821 5821 5821 5820 5820 5819 5818 5817 5817 5816 5815 5814 5813
5775 5777 5780 5782 5785 5788 5789 5791 5792 5795 5797 5798 5800 5801 5802 5803 5803 5804 5806 5807 5807 5808 5809 5810 5811 5811 5812 5813 5813 5813 5814 5814 5813 5813 5813 5812 5811 5810 5809 5809 5808 5807 5806 5805
5768 5770 5773 5776 5778 5780 5782 5784 5786 5788 5790 5791 5793 5794 5795 5796 5797 5798 5799 5800 5800 5801 5802 5802 5803 5803 5804 5805 5805 5806 5806 5806 5806 5806 5805 5804 5804 5803 5802 5801 5799 5798 5798 5797